Regional Weather Roundup
Issued by NWS

Home | Current Version | Previous Version | Graphics & Text | Print | Product List | Glossary On
Versions: 1 2 3 4 5 6 7 8 9 10 11 12 13 14 15 16 17 18 19 20 21 22 23 24 25 26 27 28 29 30 31 32 33 34 35 36 37 38 39 40 41 42 43 44 45 46 47 48 49 50
833
ASUS43 KOAX 111302
RWRNE

WEATHER ROUNDUP FOR NEBRASKA
NATIONAL WEATHER SERVICE OMAHA NE
700 AM CST SUN DEC 11 2016

NOTES: SATELLITE DATA IS BEING USED TO AUGMENT CLOUD COVER ABOVE
       12000 FEET.
       "FAIR" INDICATES FEW OR NO CLOUDS BELOW 12,000 FEET WITH NO
       SIGNIFICANT WEATHER AND/OR OBSTRUCTIONS TO VISIBILITY.

  * THESE STATIONS DO NOT REPORT WEATHER SUCH AS RAIN...SNOW OR FOG.

NEZ001>004-019>022-054>056-111400-
NEBRASKA PANHANDLE

CITY           SKY/WX    TMP DP  RH WIND       PRES   REMARKS
SCOTTSBLUFF    CLOUDY    31  17  56 NW8       29.83R WCI  23
ALLIANCE       CLOUDY    24  19  81 NW7       29.81S WCI  16
CHADRON        CLOUDY    10   7  87 VRB7      29.86R WCI  -1
KIMBALL        CLOUDY    31  26  80 NW15      29.80R WCI  20
SIDNEY         CLOUDY    31  23  72 N10       29.81R WCI  22
$$

NEZ057>060-069>072-079>082-111400-
SOUTHWEST NEBRASKA

CITY           SKY/WX    TMP DP  RH WIND       PRES   REMARKS
NORTH PLATTE   CLOUDY    25  16  68 N15G31    29.80R WCI  13
IMPERIAL       CLOUDY    30  22  72 N18       29.81R WCI  18
LEXINGTON      CLOUDY    22  15  75 N16G23    29.82R WCI   8
MCCOOK         CLOUDY    28  21  75 N10       29.81R WCI  19
OGALLALA       CLOUDY    31  21  66 N23G29    29.81R WCI  18
$$

NEZ005>010-023>029-035>040-094-111400-
NORTH CENTRAL NEBRASKA

CITY           SKY/WX    TMP DP  RH WIND       PRES   REMARKS
VALENTINE      CLOUDY    10   5  80 N7        29.86S WCI  -1
AINSWORTH      FLURRIES  12  10  93 NW10      29.85R WCI  -2
BROKEN BOW     CLOUDY    18  13  80 N26G38    29.79R WCI  -1
O`NEILL        CLOUDY    19  17  93 NW18G25   29.82R FOG     WCI   3
ORD            CLOUDY    21  16  81 N22G30    29.81R WCI   5
THEDFORD       CLOUDY    17  13  86 NW13G18   29.85R WCI   3
$$

NEZ041-046>049-061>064-073>077-083>087-111400-
SOUTH CENTRAL NEBRASKA

CITY           SKY/WX    TMP DP  RH WIND       PRES   REMARKS
GRAND ISLAND   CLOUDY    26  22  84 NW15      29.78R WCI  14
AURORA         CLOUDY    27  24  87 NW14      29.76R WCI  16
HASTINGS       CLOUDY    27  23  85 N12       29.78R WCI  17
HEBRON         MOCLDY    26  24  90 NW5       29.76R WCI  21
HOLDREGE       CLOUDY    23  19  81 N14G21    29.78R WCI  11
KEARNEY *      CLOUDY    23  16  74 N16G22    29.79R WCI  10
YORK           CLOUDY    25  23  93 CALM      29.77R
$$

NEZ011>018-030>034-042>045-111400-
NORTHEAST NEBRASKA

CITY           SKY/WX    TMP DP  RH WIND       PRES   REMARKS
NORFOLK        CLOUDY    23  20  88 NW5       29.76F WCI  17
ALBION         CLOUDY    25  21  83 N17G23    29.78R WCI  12
BLAIR          CLOUDY    31  24  73 CALM      29.76R
FREMONT        PTCLDY    29  23  78 CALM      29.77S
TEKAMAH        CLOUDY    26  21  81 CALM      29.77R
WAYNE          CLOUDY    24  21  89 CALM      29.78S
$$

NEZ050>053-065>068-078-088>093-111400-
SOUTHEAST NEBRASKA

CITY           SKY/WX    TMP DP  RH WIND       PRES   REMARKS
LINCOLN        PTCLDY    29  22  75 NW7       29.78R WCI  22
OMAHA EPPLEY   CLOUDY    31  23  72 CALM      29.77S
BEATRICE       CLOUDY    34  29  80 CALM      29.74S
FALLS CITY     CLOUDY    38  29  70 E3        29.75R
NEBRASKA CITY  CLOUDY    35  23  61 CALM      29.75F
PLATTSMOUTH    CLOUDY    34  23  64 SE3       29.75F
$$

NEZ044-045-051>053-067-111400-
OMAHA AREA

CITY           SKY/WX    TMP DP  RH WIND       PRES   REMARKS
OMAHA EPPLEY   CLOUDY    31  23  72 CALM      29.77S
BLAIR          CLOUDY    31  24  73 CALM      29.76R
FREMONT        PTCLDY    29  23  78 CALM      29.77S
MILLARD        CLOUDY    33  25  72 CALM      29.78R
OFFUTT AFB     CLOUDY    33  25  72 E3        29.77R
PLATTSMOUTH    CLOUDY    34  23  64 SE3       29.75F
WAHOO          FAIR      28  22  79 CALM      29.77R
$$




USA.gov is the U.S. government's official web portal to all federal, state and local government web resources and services.